Torna al catalogo

STARLINK-34328

AttivoComunicazioniVLEO
NORAD 64220·PAYLOAD·🇺🇸 United States

Lanciato May 31, 2025 da Vandenberg Space Force Base

Loading…

Prossimi Passaggi (prossime 24 ore)

TLE

AggiornatoSource: CelesTrak SupGP

Epoca: Sep 15, 2026, 03:54 UTC

1 64220C 25117T   26258.16298611 -.00052115  00000+0 -15397-2 0  2587
2 64220  53.1582 236.6009 0001380  87.3447   0.5402 15.34417216    17

Traccia STARLINK-34328 in tempo reale con AllMySat

Download on the App Store